When you browse on this site, cookies collect data to enhance your experience and personalize the content and advertising you see.
Visit our Privacy Policy to learn more. By continuing to use the site, you agree to this use of cookies and data.
  • In Lithuania
  • List of Countries
  • For 7 days
  • Water Temperature
  • Satellite Maps
  • Weather Map
  • Weather Widgets
  • user-avatar
    Login

    Hourly Weather Beja

    Today, 23 July, Tuesday

    Time Temperature Precipitation Wind Pressure Humidity
    00:00 +21°C° 0.2 mm 1 mps 741 mmHg 75%
    01:00 +21°C° 0.2 mm 1 mps 740 mmHg 76%
    02:00 +21°C° 0.2 mm 1 mps 740 mmHg 76%
    03:00 +21°C° 0 mm 1 mps 740 mmHg 77%
    04:00 +21°C° 0 mm 1 mps 740 mmHg 77%
    05:00 +21°C° 0 mm 1 mps 740 mmHg 78%
    06:00 +23°C° 0 mm 2 mps 741 mmHg 67%
    07:00 +25°C° 0 mm 2 mps 741 mmHg 57%
    08:00 +27°C° 0 mm 2 mps 741 mmHg 46%
    09:00 +30°C° 0 mm 3 mps 741 mmHg 39%
    10:00 +33°C° 0 mm 3 mps 741 mmHg 32%
    11:00 +35°C° 0 mm 3 mps 741 mmHg 25%
    12:00 +37°C° 0 mm 3 mps 741 mmHg 23%
    13:00 +38°C° 0 mm 3 mps 741 mmHg 22%
    14:00 +39°C° 0 mm 3 mps 740 mmHg 20%
    15:00 +37°C° 0 mm 5 mps 740 mmHg 23%
    16:00 +36°C° 0 mm 6 mps 740 mmHg 26%
    17:00 +34°C° 0 mm 7 mps 740 mmHg 29%
    18:00 +32°C° 0 mm 6 mps 740 mmHg 33%
    19:00 +28°C° 0 mm 5 mps 740 mmHg 38%
    20:00 +26°C° 0 mm 4 mps 740 mmHg 42%
    21:00 +25°C° 0 mm 3 mps 740 mmHg 46%
    22:00 +23°C° 0 mm 2 mps 740 mmHg 50%
    23:00 +21°C° 0 mm 2 mps 740 mmHg 53%

    Tomorrow, 24 July, Wednesday

    Time Temperature Precipitation Wind Pressure Humidity
    00:00 +20°C° 0 mm 2 mps 740 mmHg 56%
    01:00 +20°C° 0 mm 2 mps 740 mmHg 58%
    02:00 +19°C° 0 mm 2 mps 739 mmHg 60%
    03:00 +19°C° 0 mm 2 mps 739 mmHg 61%
    04:00 +19°C° 0 mm 2 mps 739 mmHg 62%
    05:00 +18°C° 0 mm 2 mps 739 mmHg 62%
    06:00 +21°C° 0 mm 2 mps 740 mmHg 52%
    07:00 +26°C° 0 mm 2 mps 740 mmHg 42%
    08:00 +29°C° 0 mm 2 mps 740 mmHg 31%
    09:00 +31°C° 0 mm 2 mps 740 mmHg 27%
    10:00 +35°C° 0 mm 2 mps 740 mmHg 23%
    11:00 +37°C° 0 mm 2 mps 740 mmHg 19%
    12:00 +38°C° 0 mm 3 mps 740 mmHg 18%
    13:00 +39°C° 0 mm 3 mps 739 mmHg 16%
    14:00 +40°C° 0 mm 3 mps 739 mmHg 15%
    15:00 +38°C° 0 mm 4 mps 739 mmHg 17%
    16:00 +36°C° 0 mm 6 mps 739 mmHg 20%
    17:00 +34°C° 0 mm 8 mps 739 mmHg 22%
    18:00 +32°C° 0 mm 6 mps 739 mmHg 30%
    19:00 +28°C° 0 mm 5 mps 739 mmHg 37%
    20:00 +25°C° 0 mm 4 mps 740 mmHg 44%
    21:00 +24°C° 0 mm 3 mps 740 mmHg 54%
    22:00 +21°C° 0 mm 3 mps 740 mmHg 65%
    23:00 +20°C° 0 mm 2 mps 740 mmHg 75%

    Day after tomorrow, 25 July, Thursday

    Time Temperature Precipitation Wind Pressure Humidity
    00:00 +20°C° 0 mm 2 mps 739 mmHg 80%
    01:00 +19°C° 0 mm 2 mps 739 mmHg 85%
    02:00 +20°C° 0 mm 1 mps 739 mmHg 90%
    03:00 +19°C° 0 mm 1 mps 740 mmHg 91%
    04:00 +19°C° 0 mm 1 mps 740 mmHg 92%
    05:00 +19°C° 0 mm 1 mps 740 mmHg 93%
    06:00 +21°C° 0 mm 2 mps 740 mmHg 81%
    07:00 +24°C° 0 mm 2 mps 740 mmHg 68%
    08:00 +27°C° 0 mm 2 mps 741 mmHg 56%
    09:00 +29°C° 0 mm 2 mps 740 mmHg 47%
    10:00 +31°C° 0 mm 3 mps 740 mmHg 38%
    11:00 +34°C° 0 mm 3 mps 740 mmHg 30%
    12:00 +35°C° 0 mm 4 mps 740 mmHg 30%
    13:00 +36°C° 0 mm 5 mps 740 mmHg 30%
    14:00 +36°C° 0 mm 6 mps 739 mmHg 29%
    15:00 +35°C° 0 mm 6 mps 739 mmHg 33%
    16:00 +33°C° 0 mm 7 mps 739 mmHg 36%
    17:00 +30°C° 0 mm 7 mps 739 mmHg 39%
    18:00 +28°C° 0 mm 6 mps 740 mmHg 50%
    19:00 +26°C° 0 mm 6 mps 740 mmHg 61%
    20:00 +23°C° 0 mm 5 mps 740 mmHg 71%
    21:00 +22°C° 0 mm 5 mps 740 mmHg 74%
    22:00 +21°C° 0 mm 5 mps 740 mmHg 77%
    23:00 +20°C° 0 mm 4 mps 740 mmHg 80%

    26 July, Friday

    Time Temperature Precipitation Wind Pressure Humidity
    00:00 +19°C° 0 mm 4 mps 740 mmHg 83%
    01:00 +18°C° 0 mm 3 mps 740 mmHg 86%
    02:00 +17°C° 0 mm 3 mps 740 mmHg 90%
    03:00 +16°C° 0 mm 3 mps 740 mmHg 90%
    04:00 +16°C° 0 mm 3 mps 741 mmHg 91%
    05:00 +14°C° 0 mm 4 mps 741 mmHg 91%
    06:00 +17°C° 0 mm 4 mps 741 mmHg 78%
    07:00 +20°C° 0 mm 5 mps 741 mmHg 66%
    08:00 +22°C° 0 mm 6 mps 742 mmHg 53%
    09:00 +24°C° 0 mm 6 mps 741 mmHg 46%
    10:00 +27°C° 0 mm 6 mps 741 mmHg 39%
    11:00 +29°C° 0 mm 6 mps 741 mmHg 33%
    12:00 +30°C° 0 mm 7 mps 741 mmHg 31%
    13:00 +32°C° 0 mm 7 mps 741 mmHg 29%
    14:00 +32°C° 0 mm 7 mps 741 mmHg 28%
    15:00 +30°C° 0 mm 7 mps 741 mmHg 30%
    16:00 +29°C° 0 mm 8 mps 741 mmHg 33%
    17:00 +28°C° 0 mm 8 mps 740 mmHg 35%
    18:00 +24°C° 0 mm 7 mps 741 mmHg 43%
    19:00 +22°C° 0 mm 7 mps 741 mmHg 52%
    20:00 +20°C° 0 mm 6 mps 741 mmHg 60%
    21:00 +17°C° 0 mm 6 mps 741 mmHg 65%
    22:00 +16°C° 0 mm 5 mps 741 mmHg 69%
    23:00 +15°C° 0 mm 5 mps 741 mmHg 74%

    27 July, Saturday

    Time Temperature Precipitation Wind Pressure Humidity
    00:00 +15°C° 0 mm 5 mps 741 mmHg 76%
    01:00 +14°C° 0 mm 5 mps 741 mmHg 77%
    02:00 +14°C° 0 mm 5 mps 741 mmHg 79%
    03:00 +14°C° 0 mm 4 mps 741 mmHg 80%
    04:00 +14°C° 0 mm 4 mps 741 mmHg 81%
    05:00 +14°C° 0 mm 4 mps 741 mmHg 82%
    06:00 +16°C° 0 mm 5 mps 741 mmHg 72%
    07:00 +20°C° 0 mm 5 mps 741 mmHg 61%
    08:00 +22°C° 0 mm 5 mps 742 mmHg 51%
    09:00 +25°C° 0 mm 5 mps 741 mmHg 47%
    10:00 +28°C° 0 mm 6 mps 741 mmHg 43%
    11:00 +30°C° 0 mm 6 mps 741 mmHg 38%
    12:00 +30°C° 0 mm 6 mps 741 mmHg 41%
    13:00 +30°C° 0 mm 7 mps 740 mmHg 43%
    14:00 +31°C° 0 mm 8 mps 740 mmHg 46%
    15:00 +28°C° 0 mm 7 mps 740 mmHg 52%
    16:00 +27°C° 0 mm 7 mps 739 mmHg 58%
    17:00 +26°C° 0 mm 7 mps 739 mmHg 64%
    18:00 +23°C° 0 mm 6 mps 739 mmHg 70%
    19:00 +22°C° 0 mm 5 mps 740 mmHg 76%
    20:00 +21°C° 0 mm 4 mps 740 mmHg 82%
    21:00 +20°C° 0 mm 4 mps 740 mmHg 85%
    22:00 +19°C° 0 mm 3 mps 740 mmHg 88%
    23:00 +18°C° 0 mm 3 mps 739 mmHg 91%

    28 July, Sunday

    Time Temperature Precipitation Wind Pressure Humidity
    00:00 +18°C° 0 mm 3 mps 739 mmHg 93%
    01:00 +17°C° 0 mm 3 mps 739 mmHg 94%
    02:00 +17°C° 0 mm 2 mps 738 mmHg 96%
    03:00 +16°C° 0 mm 2 mps 738 mmHg 96%
    04:00 +16°C° 0 mm 2 mps 738 mmHg 97%
    05:00 +16°C° 0 mm 2 mps 738 mmHg 97%
    06:00 +18°C° 0 mm 3 mps 739 mmHg 83%
    07:00 +21°C° 0 mm 3 mps 739 mmHg 70%
    08:00 +23°C° 0 mm 4 mps 739 mmHg 56%
    09:00 +26°C° 0 mm 4 mps 739 mmHg 48%
    10:00 +28°C° 0 mm 4 mps 739 mmHg 39%
    11:00 +30°C° 0 mm 4 mps 739 mmHg 30%
    12:00 +32°C° 0 mm 4 mps 739 mmHg 28%
    13:00 +33°C° 0 mm 4 mps 738 mmHg 25%
    14:00 +34°C° 0 mm 5 mps 738 mmHg 23%
    15:00 +33°C° 0 mm 5 mps 738 mmHg 28%
    16:00 +32°C° 0 mm 6 mps 738 mmHg 33%
    17:00 +30°C° 0 mm 7 mps 737 mmHg 37%
    18:00 +27°C° 0 mm 6 mps 738 mmHg 43%
    19:00 +24°C° 0 mm 6 mps 738 mmHg 48%
    20:00 +22°C° 0 mm 6 mps 738 mmHg 53%
    21:00 +20°C° 0 mm 5 mps 738 mmHg 57%
    22:00 +19°C° 0 mm 4 mps 738 mmHg 62%
    23:00 +17°C° 0 mm 3 mps 738 mmHg 66%
    Show more